W4OA Weather Reports


Display with metric or nautical units.
time (UTC)temp
F
wind
direction
speed
MPH
gust
MPH
rain 1hr
in
rain 24hr
in
rain mn
in
humidity
%
barometer
mb
20260505113958 52 0 0.0 0.0 0.00 0.00 0.00 92 1008.0
20260505113459 51 338 0.0 0.0 0.00 0.00 0.00 91 1008.0
20260505112959 51 338 0.0 0.0 0.00 0.00 0.00 91 1008.0
20260505112458 51 315 0.0 0.0 0.00 0.00 0.00 91 1008.0
20260505112000 51 0 0.0 0.0 0.00 0.00 0.00 91 1007.0
20260505111458 51 315 0.0 0.0 0.00 0.00 0.00 91 1007.0
20260505110958 51 315 0.0 0.0 0.00 0.00 0.00 91 1007.0
20260505110459 51 315 0.0 0.0 0.00 0.00 0.00 91 1007.0
20260505101958 51 315 0.0 0.0 0.00 0.00 0.00 90 1008.0
20260505101459 51 270 0.0 0.0 0.00 0.00 0.00 90 1008.0
20260505100959 52 270 0.0 0.0 0.00 0.00 0.00 90 1008.0
20260505100458 52 270 0.0 0.0 0.00 0.00 0.00 90 1008.0
20260505095958 52 248 0.0 0.0 0.00 0.00 0.00 90 1008.0
20260505095500 52 248 0.0 0.0 0.00 0.00 0.00 89 1008.0
20260505094958 52 315 0.0 0.0 0.00 0.00 0.00 89 1008.0
20260505094458 52 315 0.0 0.0 0.00 0.00 0.00 89 1008.0
20260505093958 52 293 0.0 0.0 0.00 0.00 0.00 89 1008.0
20260505093458 52 315 0.0 0.0 0.00 0.00 0.00 88 1008.0
20260505092958 53 338 0.0 0.0 0.00 0.00 0.00 88 1008.0
20260505092458 53 293 0.0 0.0 0.00 0.00 0.00 87 1008.0
20260505091959 53 338 0.0 0.0 0.00 0.00 0.00 87 1008.0
20260505091458 53 293 0.0 0.0 0.00 0.00 0.00 87 1008.0
20260505090958 53 293 0.0 0.0 0.00 0.00 0.00 87 1008.0
20260505090500 54 270 0.0 0.0 0.00 0.00 0.00 86 1008.0
20260505085958 54 23 0.0 0.0 0.00 0.00 0.00 86 1008.0
20260505085458 54 293 0.0 0.0 0.00 0.00 0.00 86 1008.0
20260505084958 54 180 0.0 0.0 0.00 0.00 0.00 85 1008.0
20260505084458 54 180 0.0 0.0 0.00 0.00 0.00 84 1008.0
20260505084000 54 293 0.0 0.0 0.00 0.00 0.00 83 1008.0
20260505083458 55 315 0.0 0.0 0.00 0.00 0.00 82 1008.0
20260505082958 55 315 0.0 0.0 0.00 0.00 0.00 82 1008.0
20260505082458 55 293 0.0 0.0 0.00 0.00 0.00 81 1009.0
20260505081959 55 338 0.0 0.0 0.00 0.00 0.00 81 1008.0
20260505081458 55 315 0.0 0.0 0.00 0.00 0.00 80 1009.0
20260505080958 56 315 0.0 0.0 0.00 0.00 0.00 80 1009.0
20260505080458 56 293 0.0 0.0 0.00 0.00 0.00 79 1009.0
20260505075959 56 338 0.0 0.0 0.00 0.00 0.00 78 1008.0
20260505075458 56 270 0.0 0.0 0.00 0.00 0.00 77 1008.0
20260505074959 57 203 0.0 0.0 0.00 0.00 0.00 77 1008.0
20260505074458 57 293 0.0 0.0 0.00 0.00 0.00 76 1008.0
20260505073958 57 270 0.0 0.0 0.00 0.00 0.00 75 1008.0
20260505073459 58 248 0.0 0.0 0.00 0.00 0.00 74 1008.0
20260505072959 58 315 0.0 0.0 0.00 0.00 0.00 74 1008.0
20260505072458 58 293 0.0 0.0 0.00 0.00 0.00 73 1008.0
20260505071958 58 338 0.0 0.0 0.00 0.00 0.00 72 1008.0
20260505071459 58 338 0.0 0.0 0.00 0.00 0.00 73 1008.0
20260505070958 59 0 0.0 0.0 0.00 0.00 0.00 72 1008.0
20260505070459 59 315 0.0 0.0 0.00 0.00 0.00 69 1008.0
20260505065959 59 338 0.0 0.0 0.00 0.00 0.00 69 1008.0
20260505065458 59 0 0.0 0.0 0.00 0.00 0.00 69 1008.0
20260505065003 59 0 0.0 0.0 0.00 0.00 0.00 71 1008.0
20260505064458 58 45 0.0 1.0 0.00 0.00 0.00 71 1008.0
20260505063958 58 293 0.0 0.0 0.00 0.00 0.00 70 1009.0
20260505063458 59 338 0.0 0.0 0.00 0.00 0.00 70 1009.0
20260505062958 59 338 0.0 0.0 0.00 0.00 0.00 70 1008.0
20260505062458 59 315 0.0 0.0 0.00 0.00 0.00 69 1009.0
20260505061959 59 293 0.0 0.0 0.00 0.00 0.00 68 1009.0
20260505061458 60 315 0.0 0.0 0.00 0.00 0.00 67 1009.0
20260505060958 60 293 0.0 0.0 0.00 0.00 0.00 66 1009.0
20260505060458 61 315 0.0 0.0 0.00 0.00 0.00 64 1009.0
20260505055958 62 338 0.0 0.0 0.00 0.00 0.00 62 1009.0
20260505055458 62 68 1.0 2.0 0.00 0.00 0.00 61 1009.0
20260505054959 62 45 0.0 1.0 0.00 0.00 0.00 59 1009.0
20260505054459 63 315 0.0 0.0 0.00 0.00 0.00 59 1008.0
20260505053959 63 45 2.0 2.0 0.00 0.00 0.00 58 1008.0
20260505053458 63 0 1.0 2.0 0.00 0.00 0.00 58 1008.0
20260505052958 63 45 3.0 3.0 0.00 0.00 0.00 57 1009.0
20260505052458 63 45 0.0 1.0 0.00 0.00 0.00 56 1009.0
20260505051958 63 68 1.0 2.0 0.00 0.00 0.00 56 1009.0
20260505051458 64 45 2.0 2.0 0.00 0.00 0.00 55 1008.0
20260505050958 64 45 1.0 2.0 0.00 0.00 0.00 54 1009.0
20260505050458 64 68 0.0 1.0 0.00 0.00 0.00 54 1009.0
20260505041458 63 45 0.0 0.0 0.00 0.00 0.00 58 1008.0
20260505040958 63 315 0.0 0.0 0.00 0.00 0.00 55 1008.0
20260505040459 63 45 0.0 0.0 0.00 0.00 0.00 56 1008.0
20260505035958 63 45 0.0 0.0 0.00 0.00 0.00 59 1008.0
20260505035459 62 23 0.0 0.0 0.00 0.00 0.00 58 1008.0
20260505035002 63 23 0.0 0.0 0.00 0.00 0.00 61 1008.0
20260505034458 63 23 0.0 0.0 0.00 0.00 0.00 59 1008.0
20260505033959 63 0 0.0 0.0 0.00 0.00 0.00 57 1008.0
20260505033458 64 0 0.0 0.0 0.00 0.00 0.00 53 1008.0
20260505032958 64 338 0.0 0.0 0.00 0.00 0.00 54 1008.0
20260505032458 64 0 0.0 0.0 0.00 0.00 0.00 55 1008.0
20260505031959 64 45 0.0 0.0 0.00 0.00 0.00 54 1008.0
20260505031458 63 338 0.0 0.0 0.00 0.00 0.00 55 1008.0
20260505030958 64 23 0.0 0.0 0.00 0.00 0.00 58 1008.0
20260505030459 64 0 0.0 0.0 0.00 0.00 0.00 54 1008.0
20260505025959 64 23 0.0 0.0 0.00 0.00 0.00 58 1008.0
20260505025458 63 315 0.0 0.0 0.00 0.00 0.00 57 1009.0
20260505024958 63 0 0.0 0.0 0.00 0.00 0.00 59 1008.0
20260505024458 63 338 0.0 0.0 0.00 0.00 0.00 61 1009.0
20260505024000 63 0 0.0 0.0 0.00 0.00 0.00 60 1008.0
20260505023458 63 338 0.0 0.0 0.00 0.00 0.00 61 1008.0
20260505022958 63 23 0.0 0.0 0.00 0.00 0.00 61 1008.0
20260505022458 63 0 0.0 0.0 0.00 0.00 0.00 61 1008.0
20260505021958 64 45 0.0 0.0 0.00 0.00 0.00 59 1008.0
20260505021458 63 23 0.0 0.0 0.00 0.00 0.00 60 1008.0
20260505020958 63 315 0.0 0.0 0.00 0.00 0.00 61 1008.0
20260505020458 63 0 0.0 0.0 0.00 0.00 0.00 61 1008.0
20260505015959 63 338 0.0 0.0 0.00 0.00 0.00 59 1008.0
20260505015458 64 338 0.0 0.0 0.00 0.00 0.00 59 1008.0
20260505014959 64 338 0.0 0.0 0.00 0.00 0.00 58 1008.0
20260505014458 64 23 0.0 0.0 0.00 0.00 0.00 57 1008.0
20260505013959 65 23 0.0 0.0 0.00 0.00 0.00 56 1008.0
20260505013458 65 293 0.0 0.0 0.00 0.00 0.00 54 1008.0
20260505012958 66 0 0.0 0.0 0.00 0.00 0.00 53 1008.0
20260505012458 67 338 0.0 0.0 0.00 0.00 0.00 51 1008.0
20260505011958 66 0 0.0 0.0 0.00 0.00 0.00 51 1008.0
20260505011459 66 338 0.0 0.0 0.00 0.00 0.00 51 1008.0
20260505010958 67 0 0.0 0.0 0.00 0.00 0.00 52 1008.0
20260505010458 67 315 0.0 0.0 0.00 0.00 0.00 50 1008.0
20260505005959 68 0 0.0 0.0 0.00 0.00 0.00 48 1008.0
20260505005458 68 0 0.0 0.0 0.00 0.00 0.00 50 1008.0
20260505004958 68 0 0.0 0.0 0.00 0.00 0.00 49 1008.0
20260505004458 68 0 0.0 0.0 0.00 0.00 0.00 48 1008.0
20260505003958 69 23 0.0 0.0 0.00 0.00 0.00 46 1008.0
20260505003459 70 315 0.0 0.0 0.00 0.00 0.00 43 1008.0
20260505002959 70 315 0.0 0.0 0.00 0.00 0.00 42 1008.0
20260505002500 71 315 0.0 0.0 0.00 0.00 0.00 40 1008.0
20260505001959 72 315 0.0 0.0 0.00 0.00 0.00 39 1008.0
20260505001458 72 338 0.0 0.0 0.00 0.00 0.00 39 1008.0
20260505000958 73 293 0.0 0.0 0.00 0.00 0.00 37 1008.0
20260505000458 73 338 0.0 0.0 0.00 0.00 0.00 38 1007.0
20260504235958 74 23 0.0 0.0 0.00 0.00 0.00 36 1008.0
20260504235458 74 23 0.0 0.0 0.00 0.00 0.00 38 1008.0
20260504234959 75 68 2.0 2.0 0.00 0.00 0.00 35 1008.0
20260504234458 75 90 3.0 4.0 0.00 0.00 0.00 34 1008.0
20260504233959 76 90 0.0 1.0 0.00 0.00 0.00 36 1008.0
20260504233458 76 23 2.0 2.0 0.00 0.00 0.00 35 1008.0
20260504232959 76 113 1.0 2.0 0.00 0.00 0.00 34 1008.0
20260504232459 77 90 1.0 2.0 0.00 0.00 0.00 35 1008.0
20260504231958 77 23 1.0 2.0 0.00 0.00 0.00 36 1008.0
20260504231458 77 45 2.0 3.0 0.00 0.00 0.00 35 1008.0
20260504230958 78 90 0.0 0.0 0.00 0.00 0.00 34 1008.0
20260504230458 78 23 0.0 1.0 0.00 0.00 0.00 35 1008.0
20260504225958 78 315 2.0 2.0 0.00 0.00 0.00 36 1008.0
20260504225458 77 45 2.0 3.0 0.00 0.00 0.00 36 1008.0
20260504224958 78 68 0.0 1.0 0.00 0.00 0.00 36 1008.0
20260504224459 78 68 0.0 1.0 0.00 0.00 0.00 35 1008.0
20260504223958 77 90 0.0 0.0 0.00 0.00 0.00 34 1008.0
20260504223459 77 68 0.0 0.0 0.00 0.00 0.00 35 1008.0
20260504222958 76 338 0.0 0.0 0.00 0.00 0.00 36 1008.0
20260504222458 77 45 0.0 1.0 0.00 0.00 0.00 35 1008.0
20260504221958 77 68 3.0 4.0 0.00 0.00 0.00 35 1008.0
20260504221458 77 113 2.0 3.0 0.00 0.00 0.00 34 1008.0
20260504220517 78 68 1.0 2.0 0.00 0.00 0.00 34 1008.0
20260504215958 78 68 3.0 5.0 0.00 0.00 0.00 34 1008.0
20260504215459 80 90 0.0 0.0 0.00 0.00 0.00 34 1008.0
20260504214959 79 68 4.0 5.0 0.00 0.00 0.00 33 1008.0
20260504214458 79 68 4.0 5.0 0.00 0.00 0.00 33 1008.0
20260504213958 81 90 1.0 2.0 0.00 0.00 0.00 33 1008.0
20260504213458 81 338 0.0 0.0 0.00 0.00 0.00 33 1008.0
20260504212958 79 180 1.0 2.0 0.00 0.00 0.00 34 1008.0
20260504212458 79 293 0.0 0.0 0.00 0.00 0.00 33 1008.0
20260504211958 80 23 0.0 1.0 0.00 0.00 0.00 31 1008.0
20260504211458 79 45 2.0 2.0 0.00 0.00 0.00 31 1008.0
20260504210958 79 23 1.0 2.0 0.00 0.00 0.00 31 1008.0
20260504210459 80 68 3.0 3.0 0.00 0.00 0.00 30 1008.0
20260504205959 80 338 0.0 1.0 0.00 0.00 0.00 31 1008.0
20260504205459 78 68 3.0 3.0 0.00 0.00 0.00 32 1008.0
20260504204958 79 90 3.0 4.0 0.00 0.00 0.00 33 1008.0
20260504204458 78 225 2.0 2.0 0.00 0.00 0.00 32 1008.0
20260504203959 80 68 4.0 7.0 0.00 0.00 0.00 32 1008.0
20260504203458 78 68 4.0 6.0 0.00 0.00 0.00 32 1008.0
20260504202959 80 135 1.0 2.0 0.00 0.00 0.00 33 1008.0
20260504202458 80 68 3.0 4.0 0.00 0.00 0.00 32 1009.0
20260504201959 79 68 2.0 5.0 0.00 0.00 0.00 32 1008.0
20260504201458 80 135 2.0 2.0 0.00 0.00 0.00 32 1008.0
20260504200958 79 113 2.0 2.0 0.00 0.00 0.00 34 1008.0
20260504200458 79 68 3.0 5.0 0.00 0.00 0.00 32 1009.0
20260504195958 79 135 3.0 4.0 0.00 0.00 0.00 31 1009.0
20260504195458 80 113 1.0 2.0 0.00 0.00 0.00 32 1009.0
20260504194958 82 0 1.0 1.0 0.00 0.00 0.00 29 1009.0
20260504194458 79 68 0.0 0.0 0.00 0.00 0.00 30 1009.0
20260504193958 79 338 0.0 1.0 0.00 0.00 0.00 30 1009.0
20260504193459 80 68 1.0 3.0 0.00 0.00 0.00 30 1009.0
20260504192958 80 68 1.0 3.0 0.00 0.00 0.00 30 1009.0
20260504192458 80 90 2.0 2.0 0.00 0.00 0.00 32 1009.0
20260504191959 80 158 1.0 4.0 0.00 0.00 0.00 30 1009.0
20260504191459 80 158 2.0 2.0 0.00 0.00 0.00 30 1009.0
20260504190958 80 135 1.0 2.0 0.00 0.00 0.00 30 1009.0
20260504190459 79 158 1.0 2.0 0.00 0.00 0.00 30 1009.0
20260504185958 79 158 1.0 2.0 0.00 0.00 0.00 30 1009.0
20260504185459 80 338 0.0 0.0 0.00 0.00 0.00 29 1010.0
20260504184641 78 135 0.0 1.0 0.00 0.00 0.00 31 1009.0
20260504183959 77 90 2.0 3.0 0.00 0.00 0.00 33 1010.0
20260504183459 80 180 0.0 1.0 0.00 0.00 0.00 32 1010.0
20260504182958 79 203 0.0 1.0 0.00 0.00 0.00 29 1010.0
20260504182459 79 135 1.0 2.0 0.00 0.00 0.00 32 1010.0
20260504181958 78 90 2.0 2.0 0.00 0.00 0.00 34 1010.0
20260504181458 77 158 2.0 3.0 0.00 0.00 0.00 35 1010.0
20260504180958 76 68 0.0 1.0 0.00 0.00 0.00 34 1010.0
20260504180459 77 23 1.0 2.0 0.00 0.00 0.00 34 1010.0
20260504180000 77 315 1.0 2.0 0.00 0.00 0.00 36 1010.0
20260504175458 75 68 1.0 2.0 0.00 0.00 0.00 36 1010.0
20260504174959 75 45 0.0 1.0 0.00 0.00 0.00 36 1010.0
20260504174458 75 315 0.0 0.0 0.00 0.00 0.00 37 1010.0
20260504173958 74 90 2.0 2.0 0.00 0.00 0.00 38 1010.0
20260504173459 73 45 4.0 5.0 0.00 0.00 0.00 36 1010.0
20260504172958 74 45 0.0 0.0 0.00 0.00 0.00 37 1010.0
20260504172459 74 135 1.0 2.0 0.00 0.00 0.00 38 1011.0
20260504171958 73 203 1.0 2.0 0.00 0.00 0.00 37 1011.0
20260504171458 74 158 0.0 0.0 0.00 0.00 0.00 38 1011.0
20260504170959 74 158 1.0 2.0 0.00 0.00 0.00 37 1011.0
20260504170458 74 23 1.0 2.0 0.00 0.00 0.00 37 1011.0
20260504150958 68 135 0.0 1.0 0.00 0.00 0.00 44 1012.0
20260504150458 68 225 2.0 2.0 0.00 0.00 0.00 43 1012.0
20260504140958 65 68 2.0 3.0 0.00 0.00 0.00 46 1012.0
20260504140459 65 45 3.0 3.0 0.00 0.00 0.00 46 1012.0